Satellite: AUBIESAT Catalog number: 37854 Epoch time: 12348.34689104 Element set: 368 Inclination: 101.7079 deg RA of node: 110.7717 deg Eccentricity: 0.0242873 Arg of perigee: 198.4912 deg Mean anomaly: 160.7358 deg Mean motion: 14.82257671 rev/day Decay rate: 6.749e-05 rev/day^2 Epoch rev: 6091 Checksum: 329
Satellite: HRBE Catalog number: 37855 Epoch time: 12348.24761023 Element set: 365 Inclination: 101.7076 deg RA of node: 110.5082 deg Eccentricity: 0.0243322 Arg of perigee: 199.0176 deg Mean anomaly: 160.1827 deg Mean motion: 14.82025332 rev/day Decay rate: 6.291e-05 rev/day^2 Epoch rev: 6089 Checksum: 277
Satellite: RS-39 Catalog number: 38051 Epoch time: 12348.70727002 Element set: 979 Inclination: 051.6387 deg RA of node: 022.2863 deg Eccentricity: 0.0012550 Arg of perigee: 322.5246 deg Mean anomaly: 141.8178 deg Mean motion: 15.27893316 rev/day Decay rate: 8.715e-05 rev/day^2 Epoch rev: 4938 Checksum: 316
Satellite: E-STAR Catalog number: 38079 Epoch time: 12348.83739173 Element set: 713 Inclination: 069.4858 deg RA of node: 261.0662 deg Eccentricity: 0.0681455 Arg of perigee: 018.6457 deg Mean anomaly: 343.8500 deg Mean motion: 14.29377115 rev/day Decay rate: 5.5720e-04 rev/day^2 Epoch rev: 4311 Checksum: 319
Satellite: GOLIAT Catalog number: 38085 Epoch time: 12348.83297619 Element set: 688 Inclination: 069.4849 deg RA of node: 262.0759 deg Eccentricity: 0.0689019 Arg of perigee: 019.1821 deg Mean anomaly: 343.3801 deg Mean motion: 14.27958047 rev/day Decay rate: 5.2096e-04 rev/day^2 Epoch rev: 4308 Checksum: 348
Satellite: HORYU-2 Catalog number: 38340 Epoch time: 12348.09397229 Element set: 280 Inclination: 098.1938 deg RA of node: 288.4365 deg Eccentricity: 0.0013569 Arg of perigee: 119.8307 deg Mean anomaly: 240.4306 deg Mean motion: 14.70464567 rev/day Decay rate: 9.19e-06 rev/day^2 Epoch rev: 3076 Checksum: 324
Satellite: RS-40 Catalog number: 38736 Epoch time: 12348.76954144 Element set: 133 Inclination: 082.4783 deg RA of node: 270.7349 deg Eccentricity: 0.0019641 Arg of perigee: 016.0366 deg Mean anomaly: 344.1331 deg Mean motion: 12.42648713 rev/day Decay rate: 1.0e-07 rev/day^2 Epoch rev: 1721 Checksum: 283
Satellite: PROITERES Catalog number: 38756 Epoch time: 12348.87560368 Element set: 317 Inclination: 098.2748 deg RA of node: 056.3663 deg Eccentricity: 0.0012248 Arg of perigee: 342.1608 deg Mean anomaly: 017.9160 deg Mean motion: 14.74007045 rev/day Decay rate: 3.22e-06 rev/day^2 Epoch rev: 1409 Checksum: 295
Satellite: AENEAS Catalog number: 38760 Epoch time: 12348.33241756 Element set: 0012 Inclination: 064.6718 deg RA of node: 123.4499 deg Eccentricity: 0.0216889 Arg of perigee: 264.3146 deg Mean anomaly: 093.3204 deg Mean motion: 14.79799733 rev/day Decay rate: 2.497e-05 rev/day^2 Epoch rev: 00144 Checksum: 319
Satellite: CSSWE-D Catalog number: 38761 Epoch time: 12348.33303959 Element set: 0012 Inclination: 064.6718 deg RA of node: 123.4582 deg Eccentricity: 0.0218719 Arg of perigee: 264.2727 deg Mean anomaly: 093.3424 deg Mean motion: 14.79643977 rev/day Decay rate: 1.833e-05 rev/day^2 Epoch rev: 00146 Checksum: 313
Satellite: CXBN-E Catalog number: 38762 Epoch time: 12348.32829289 Element set: 0011 Inclination: 064.6732 deg RA of node: 123.4438 deg Eccentricity: 0.0218182 Arg of perigee: 264.1481 deg Mean anomaly: 093.4730 deg Mean motion: 14.79766012 rev/day Decay rate: 2.483e-05 rev/day^2 Epoch rev: 00153 Checksum: 294
Satellite: OBJECT F Catalog number: 38763 Epoch time: 12348.33012834 Element set: 0012 Inclination: 064.6718 deg RA of node: 123.4403 deg Eccentricity: 0.0218809 Arg of perigee: 264.4441 deg Mean anomaly: 093.1695 deg Mean motion: 14.79674151 rev/day Decay rate: 1.925e-05 rev/day^2 Epoch rev: 00147 Checksum: 289
Satellite: CINEMA-G Catalog number: 38764 Epoch time: 12348.32872278 Element set: 0011 Inclination: 064.6708 deg RA of node: 123.4299 deg Eccentricity: 0.0218473 Arg of perigee: 264.4809 deg Mean anomaly: 093.1366 deg Mean motion: 14.79715353 rev/day Decay rate: 2.158e-05 rev/day^2 Epoch rev: 00143 Checksum: 312
Satellite: CP5 Catalog number: 38765 Epoch time: 12348.39142906 Element set: 0011 Inclination: 064.6720 deg RA of node: 123.1987 deg Eccentricity: 0.0217482 Arg of perigee: 264.1008 deg Mean anomaly: 093.5294 deg Mean motion: 14.79851997 rev/day Decay rate: 2.534e-05 rev/day^2 Epoch rev: 00144 Checksum: 312
Satellite: RAIKO Catalog number: 38852 Epoch time: 12348.22156453 Element set: 74 Inclination: 051.6505 deg RA of node: 310.8755 deg Eccentricity: 0.0018218 Arg of perigee: 033.5885 deg Mean anomaly: 326.6259 deg Mean motion: 15.56210228 rev/day Decay rate: 3.1177e-04 rev/day^2 Epoch rev: 1075 Checksum: 290
Satellite: FITSAT 1 Catalog number: 38853 Epoch time: 12348.20028937 Element set: 72 Inclination: 051.6447 deg RA of node: 310.7396 deg Eccentricity: 0.0016107 Arg of perigee: 046.5348 deg Mean anomaly: 313.6985 deg Mean motion: 15.57153418 rev/day Decay rate: 3.6611e-04 rev/day^2 Epoch rev: 1080 Checksum: 295
Satellite: TechEdSat Catalog number: 38854 Epoch time: 12348.34774312 Element set: 79 Inclination: 051.6400 deg RA of node: 309.4674 deg Eccentricity: 0.0016729 Arg of perigee: 049.8076 deg Mean anomaly: 310.4385 deg Mean motion: 15.59236491 rev/day Decay rate: 5.3967e-04 rev/day^2 Epoch rev: 1083 Checksum: 319
Satellite: F 1 Catalog number: 38855 Epoch time: 12348.22509239 Element set: 82 Inclination: 051.6397 deg RA of node: 310.1415 deg Eccentricity: 0.0016851 Arg of perigee: 047.1368 deg Mean anomaly: 313.1056 deg Mean motion: 15.58993523 rev/day Decay rate: 5.1277e-04 rev/day^2 Epoch rev: 1070 Checksum: 292
Satellite: WeWish Catalog number: 38856 Epoch time: 12348.90636259 Element set: 93 Inclination: 051.6453 deg RA of node: 305.7005 deg Eccentricity: 0.0018284 Arg of perigee: 050.5970 deg Mean anomaly: 309.6685 deg Mean motion: 15.63479395 rev/day Decay rate: 9.3872e-04 rev/day^2 Epoch rev: 1082 Checksum: 329
/EX
participants (1)
-
Ray Hoad